weather.gov     
National Weather Service

Regional Weather Roundup
NWS Homepage
This page is being discontinued on March 12, 2014.
The same data is available at this site. Please update your bookmarks.
Thank you, and we apologize for the inconvenience.
Please send an email to SR-SRH.Webmaster@noaa.gov with any concerns.


Current Version
Previous Version:    01  02  03  04  05  06  07  08  09  10  11  12  13  14  15  16  17  18  19  20  21  22  23  24  25  26  27  28  29  30  
   31  32  33  34  35  36  37  38  39  40  41  42  43  44  45  46  47  48  49  50  51  52  53  54  55  56  57  58  59  
[Printable]
422
ASUS44 KMEG 010810
RWRTN
TENNESSEE HOURLY STATE WEATHER ROUNDUP
NATIONAL WEATHER SERVICE MEMPHIS TN
300 AM CDT WED OCT 01 2014

TNZ002-004-019-021-049-052-054-088>092-010900-
WEST TENNESSEE

CITY           SKY/WX    TMP DP  RH WIND       PRES   REMARKS
MEMPHIS INTL   PTCLDY    71  60  68 SE3       29.89S
NWS MEMPHIS      N/A     65 N/A N/A MISG        N/A
JACKSON        CLEAR     60  58  92 CALM      29.90S FOG
DYERSBURG      CLEAR     63  52  67 CALM      29.91S
UNION CITY       N/A     57  57 100 CALM      29.89S VSB 1/2
PARIS          CLEAR     55  54  94 CALM      29.91S
HUNTINGDON     CLEAR     58  56  93 CALM      29.91S
LEXINGTON      CLEAR     57  57 100 CALM      29.90F
SAVANNAH       CLEAR     57  57 100 CALM      29.91F
$$

TNZ008-025-027-028-033-062-065-066-010900-
NORTH MIDDLE TENNESSEE

CITY           SKY/WX    TMP DP  RH WIND       PRES   REMARKS
NASHVILLE      CLEAR     59  56  89 S3        29.93F
PORTLAND       CLEAR     54  54 100 CALM      29.93S
CLARKSVILLE    PTCLDY    58  55  90 E5        29.92S
LEBANON        CLEAR     55  53  93 CALM      29.93S
SMYRNA         CLEAR     56  55  96 CALM      29.94F
MURFREESBORO   CLEAR     59  54  83 CALM      29.93F
COOKEVILLE     CLEAR     52  52 100 CALM      29.95S
LIVINGSTON     CLEAR     61  49  64 CALM      29.96S
GALLATIN       CLEAR     56  56 100 CALM      29.94F
CROSSVILLE     CLEAR     55  50  83 CALM      29.99S
$$

TNZ061-075-076-078-094-096-097-010900-
SOUTH MIDDLE TENNESSEE

CITY           SKY/WX    TMP DP  RH WIND       PRES   REMARKS
LEWISBURG      CLEAR     55  53  93 CALM      29.93F
FAYETTEVILLE   CLEAR     59  55  88 NE3G23    29.94F
TULLAHOMA        N/A     55  54  94 CALM      29.96S
WINCHESTER     CLEAR     55  54  94 CALM      29.95S
MCMINNVILLE    CLOUDY    54  54 100 CALM      29.95F VSB 1/4
SHELBYVILLE    PTCLDY    59  55  88 CALM      29.95S
$$

TNZ017-018-042-046-047-010900-
NORTHEAST TENNESSEE

CITY           SKY/WX    TMP DP  RH WIND       PRES   REMARKS
TRI CITIES     CLEAR     52  49  89 CALM      29.98S FOG
ELIZABETHTON   SUNNY     55  54  94 NE3       29.99S
$$

TNZ012-013-036-069-073-074-010900-
CENTRAL EAST TENNESSEE

CITY           SKY/WX    TMP DP  RH WIND       PRES   REMARKS
KNOXVILLE      PTCLDY    57  56  96 NE3       29.94S FOG
OAK RIDGE      FOG       58  57  97 CALM      29.96F VSB 1/4
GATLINBURG     SUNNY     54  54 100 CALM      29.95S
MORRISTOWN     SUNNY     55  55 100 CALM      29.97S
$$

TNZ083-085-099-010900-
SOUTHEAST TENNESSEE

CITY           SKY/WX    TMP DP  RH WIND       PRES   REMARKS
CHATTANOOGA    CLEAR     63  60  90 CALM      29.94F
$$

SKY/WX REPORTED AS FAIR MEANS FEW OR NO CLOUDS BELOW
12 THOUSAND FEET.





U.S. Dept. of Commerce
NOAA National Weather Service
1325 East West Highway
Silver Spring, MD 20910
E-mail: w-nws.webmaster@noaa.gov
Page last modified: May 16, 2007
NATIONAL WEATHER SERVICE: for Safety, for Work, for Fun - FOR LIFE